パンスターズ彗星

P/2017 P1 ( PanSTARRS )

English version
Home page
Updated on September 6, 2020

---------------------------------------------------------------------

・ プロフィール

発見日 2017年8月15日
発見光度 20.8等
発見者 Pan-STARRS 1 telescope (Haleakala)

・ 写真集

・ 軌道要素

Epoch 2018 June 11.0 TT = JDT 2458280.5
T 2018 June 17.71739 TT                                 Rudenko
q   5.4384715            (2000.0)            P               Q
n   0.04463631     Peri.  122.19968     +0.95422302     +0.28566870
a   7.8706481      Node   221.39142     -0.29903490     +0.90521086
e   0.3090186      Incl.    7.70165     -0.00604539     +0.31462149
P  22.1
From 46 observations 2017 June 25-2018 Sept. 14, mean residual 0".4.

・ 光度変化

        m1 = 9.5 + 5 logΔ + 10.0 log r

---------------------------------------------------------------------

軌道要素はM.P.E.C. 2020-R04に掲載されたものです。
光度グラフはComet for Windowsで作成したものです。

---------------------------------------------------------------------

Copyright(C) Seiichi Yoshida (comet@aerith.net). All rights reserved.